KF5FGL Weather Reports


Display with metric or nautical units.
time (UTC)temp
F
wind
direction
speed
MPH
gust
MPH
rain 1hr
in
rain 24hr
in
rain mn
in
humidity
%
barometer
mb
20260506093008 75 191 0.0 4.0 0.00 0.00 0.00 86 1006.3
20260506091529 77 146 0.0 6.0 0.00 0.00 0.00 85 1006.4
20260506090015 76 144 2.0 6.0 0.00 0.00 0.00 86 1006.4
20260506084503 76 189 0.0 5.0 0.00 0.00 0.00 86 1006.5
20260506083035 76 166 2.0 7.0 0.00 0.00 0.00 86 1006.4
20260506081511 76 176 2.0 4.0 0.00 0.00 0.00 85 1006.4
20260506073005 76 163 0.0 6.0 0.00 0.00 0.00 86 1006.9
20260506071525 76 164 1.0 5.0 0.00 0.00 0.00 86 1007.0
20260506061507 77 108 2.0 8.0 0.00 0.00 0.00 85 1007.0
20260506044533 77 183 2.0 6.0 0.00 0.00 0.00 85 1007.0
20260506043017 78 115 1.0 8.0 0.00 0.00 0.00 85 1006.9
20260506041506 77 135 2.0 8.0 0.00 0.00 0.00 85 1006.9
20260506040040 78 152 1.0 3.0 0.00 0.00 0.00 84 1006.7
20260506034514 78 104 2.0 7.0 0.00 0.00 0.00 84 1006.4
20260506033004 77 153 2.0 8.0 0.00 0.00 0.00 85 1006.2
20260506031524 78 111 1.0 9.0 0.00 0.00 0.00 84 1006.2
20260506030013 80 173 1.0 6.0 0.00 0.00 0.00 83 1005.9
20260506024540 79 125 3.0 9.0 0.00 0.00 0.00 83 1005.7
20260506023021 81 117 2.0 8.0 0.00 0.00 0.00 80 1005.6
20260506021514 82 140 0.0 9.0 0.00 0.00 0.00 79 1005.5
20260506020031 83 113 2.0 5.0 0.00 0.00 0.00 77 1005.1
20260506014524 83 141 1.0 9.0 0.00 0.00 0.00 77 1005.0
20260506013008 82 117 2.0 8.0 0.00 0.00 0.00 78 1004.8
20260506011530 82 119 2.0 5.0 0.00 0.00 0.00 76 1004.6
20260506010016 83 77 1.0 5.0 0.00 0.00 0.00 75 1004.3
20260506004508 84 101 1.0 6.0 0.00 0.00 0.00 74 1004.3
20260506003026 86 117 2.0 8.0 0.00 0.00 0.00 70 1004.2
20260506001515 84 162 0.0 5.0 0.00 0.00 0.00 73 1004.2
20260506000110 85 127 1.0 5.0 0.00 0.00 0.00 72 1004.0
20260505234521 87 131 1.0 7.0 0.00 0.00 0.00 69 1003.9
20260505233010 85 139 1.0 4.0 0.00 0.00 0.00 69 1003.9
20260505231530 87 128 0.0 8.0 0.00 0.00 0.00 68 1003.8
20260505230017 89 177 1.0 7.0 0.00 0.00 0.00 66 1003.9
20260505224504 88 112 2.0 7.0 0.00 0.00 0.00 66 1003.7
20260505223024 87 180 1.0 5.0 0.00 0.00 0.00 66 1003.9
20260505221511 87 125 3.0 8.0 0.00 0.00 0.00 65 1004.0
20260505214518 87 175 1.0 7.0 0.00 0.00 0.00 67 1004.3
20260505213006 87 151 2.0 7.0 0.00 0.00 0.00 66 1004.6
20260505211535 85 162 2.0 6.0 0.00 0.00 0.00 68 1004.9
20260505210012 86 137 3.0 9.0 0.00 0.00 0.00 67 1005.0
20260505204528 85 151 4.0 9.0 0.00 0.00 0.00 69 1005.2
20260505203013 84 205 3.0 9.0 0.00 0.00 0.00 70 1005.6
20260505201505 84 208 2.0 7.0 0.00 0.00 0.00 71 1005.8
20260505200020 85 173 2.0 8.0 0.00 0.00 0.00 69 1005.9
20260505194509 84 152 1.0 6.0 0.00 0.00 0.00 71 1006.1
20260505193026 84 122 3.0 7.0 0.00 0.00 0.00 71 1006.2
20260505191513 84 180 2.0 6.0 0.00 0.00 0.00 72 1006.4
20260505190030 82 117 2.0 7.0 0.00 0.00 0.00 74 1006.8
20260505184525 81 146 2.0 11.0 0.00 0.00 0.00 75 1006.9
20260505183005 81 177 2.0 7.0 0.00 0.00 0.00 77 1007.2
20260505181524 80 181 3.0 7.0 0.00 0.00 0.00 78 1007.1
20260505180012 80 227 1.0 13.0 0.00 0.00 0.00 79 1007.2
20260505174531 80 193 2.0 6.0 0.00 0.00 0.00 78 1007.3
20260505173017 78 256 3.0 7.0 0.00 0.00 0.00 81 1007.6
20260505171506 78 221 2.0 8.0 0.00 0.00 0.00 82 1007.5
20260505170034 77 176 2.0 7.0 0.00 0.00 0.00 83 1007.5
20260505164512 77 186 1.0 11.0 0.00 0.00 0.00 83 1007.6
20260505163033 76 191 3.0 10.0 0.00 0.00 0.00 85 1007.6
20260505161516 75 194 2.0 11.0 0.00 0.00 0.00 85 1007.6
20260505153009 73 197 1.0 7.0 0.00 0.00 0.00 86 1007.7
20260505151534 73 215 2.0 8.0 0.00 0.00 0.00 86 1007.6
20260505124523 70 231 6.0 12.0 0.00 0.00 0.00 86 1007.4
20260505123010 70 196 3.0 9.0 0.00 0.00 0.00 86 1007.0
20260505121536 70 189 2.0 9.0 0.00 0.00 0.00 86 1006.8
20260505120018 70 207 3.0 8.0 0.00 0.00 0.00 86 1006.7
20260505114506 70 175 2.0 13.0 0.00 0.00 0.00 86 1006.5
20260505113037 70 206 4.0 10.0 0.00 0.00 0.00 86 1006.5
20260505111535 70 170 3.0 7.0 0.00 0.00 0.00 86 1006.5
20260505101534 70 206 3.0 7.0 0.00 0.00 0.00 86 1006.7
20260505100018 70 226 3.0 9.0 0.00 0.00 0.00 86 1006.7
20260505094506 70 166 2.0 8.0 0.00 0.00 0.00 86 1006.8
20260505093033 70 215 5.0 12.0 0.00 0.00 0.00 86 1006.9